EW4276 Weather Reports


Display with metric or nautical units.
time (UTC)temp
F
wind
direction
speed
MPH
gust
MPH
rain 1hr
in
rain 24hr
in
rain mn
in
humidity
%
barometer
mb
20260504050326 50 176 1.0 4.0 0.00 0.00 0.00 46 1014.4
20260504045815 50 180 2.0 5.0 0.00 0.00 0.00 46 1014.4
20260504045328 50 169 2.0 5.0 0.00 0.00 0.00 46 1014.4
20260504044819 50 171 2.0 5.0 0.00 0.00 0.00 46 1014.4
20260504044331 50 165 3.0 5.0 0.00 0.00 0.00 44 1014.4
20260504043824 50 170 2.0 5.0 0.00 0.00 0.00 44 1014.4
20260504043316 50 173 2.0 5.0 0.00 0.00 0.00 44 1014.4
20260504042828 50 173 3.0 5.0 0.00 0.00 0.00 44 1014.4
20260504042324 51 170 3.0 5.0 0.00 0.00 0.00 43 1014.4
20260504041816 51 159 3.0 5.0 0.00 0.00 0.00 43 1014.4
20260504041329 51 169 3.0 6.0 0.00 0.00 0.00 43 1014.5
20260504040841 51 171 4.0 5.0 0.00 0.00 0.00 43 1014.5
20260504040333 51 175 3.0 6.0 0.00 0.00 0.00 43 1014.5
20260504035843 51 173 3.0 6.0 0.00 0.00 0.00 43 1014.5
20260504035314 51 175 1.0 5.0 0.00 0.00 0.00 43 1014.5
20260504034826 51 170 4.0 5.0 0.00 0.00 0.00 42 1014.5
20260504034338 51 167 2.0 4.0 0.00 0.00 0.00 42 1014.5
20260504033813 51 173 1.0 4.0 0.00 0.00 0.00 43 1014.5
20260504033346 51 170 2.0 4.0 0.00 0.00 0.00 43 1014.3
20260504032817 51 168 0.0 2.0 0.00 0.00 0.00 43 1014.3
20260504032329 51 168 0.0 2.0 0.00 0.00 0.00 43 1014.3
20260504031821 50 167 0.0 2.0 0.00 0.00 0.00 43 1014.3
20260504031332 50 167 1.0 3.0 0.00 0.00 0.00 44 1014.4
20260504030824 50 165 1.0 4.0 0.00 0.00 0.00 44 1014.3
20260504030316 50 175 1.0 4.0 0.00 0.00 0.00 45 1014.3
20260504025826 49 178 2.0 4.0 0.00 0.00 0.00 45 1014.3
20260504025322 49 169 1.0 4.0 0.00 0.00 0.00 46 1014.3
20260504024814 50 167 2.0 4.0 0.00 0.00 0.00 46 1014.4
20260504024346 51 170 4.0 5.0 0.00 0.00 0.00 45 1014.4
20260504023816 51 113 0.0 2.0 0.00 0.00 0.00 44 1014.3
20260504023328 51 113 0.0 1.0 0.00 0.00 0.00 44 1014.3
20260504022820 51 105 0.0 2.0 0.00 0.00 0.00 43 1014.3
20260504022313 51 100 1.0 3.0 0.00 0.00 0.00 44 1014.3
20260504021825 51 100 0.0 3.0 0.00 0.00 0.00 43 1014.3
20260504021317 51 103 1.0 3.0 0.00 0.00 0.00 44 1014.2
20260504020833 50 99 1.0 3.0 0.00 0.00 0.00 44 1014.2
20260504020325 49 96 1.0 2.0 0.00 0.00 0.00 45 1014.1
20260504015834 50 96 0.0 1.0 0.00 0.00 0.00 45 1014.1
20260504015325 50 96 0.0 0.0 0.00 0.00 0.00 45 1014.0
20260504014817 50 96 0.0 1.0 0.00 0.00 0.00 45 1013.9
20260504014329 51 96 0.0 1.0 0.00 0.00 0.00 44 1013.9
20260504013841 51 96 0.0 2.0 0.00 0.00 0.00 44 1013.9
20260504013332 51 96 0.0 2.0 0.00 0.00 0.00 44 1013.9
20260504012824 51 96 0.0 3.0 0.00 0.00 0.00 44 1013.8
20260504012320 51 102 0.0 3.0 0.00 0.00 0.00 44 1013.8
20260504011832 51 101 1.0 3.0 0.00 0.00 0.00 43 1013.7
20260504011324 51 119 0.0 3.0 0.00 0.00 0.00 42 1013.7
20260504010816 51 126 1.0 3.0 0.00 0.00 0.00 43 1013.7
20260504010328 51 125 0.0 2.0 0.00 0.00 0.00 44 1013.7
20260504005817 52 125 0.0 4.0 0.00 0.00 0.00 45 1013.7
20260504005330 52 125 2.0 4.0 0.00 0.00 0.00 41 1013.7
20260504004841 52 58 0.0 2.0 0.00 0.00 0.00 42 1013.6
20260504004332 52 360 0.0 2.0 0.00 0.00 0.00 41 1013.7
20260504003829 52 288 0.0 4.0 0.00 0.00 0.00 42 1013.5
20260504003321 52 287 1.0 3.0 0.00 0.00 0.00 40 1013.5
20260504002833 52 313 0.0 5.0 0.00 0.00 0.00 41 1013.6
20260504002324 52 9 1.0 3.0 0.00 0.00 0.00 41 1013.6
20260504001816 52 153 1.0 2.0 0.00 0.00 0.00 41 1013.6
20260504001328 53 117 0.0 2.0 0.00 0.00 0.00 41 1013.6
20260504000819 53 116 0.0 3.0 0.00 0.00 0.00 41 1013.6
20260504000331 53 313 0.0 3.0 0.00 0.00 0.00 40 1013.5
20260503235823 54 42 1.0 3.0 0.00 0.00 0.00 38 1013.5
20260503235315 54 56 0.0 8.0 0.00 0.00 0.00 38 1013.5
20260503234827 55 294 4.0 9.0 0.00 0.00 0.00 37 1013.5
20260503234319 55 98 4.0 9.0 0.00 0.00 0.00 37 1013.4
20260503233832 55 286 3.0 10.0 0.00 0.00 0.00 37 1013.4
20260503233344 56 306 6.0 10.0 0.00 0.00 0.00 37 1013.3
20260503232814 56 24 5.0 9.0 0.00 0.00 0.00 36 1013.3
20260503232326 56 15 3.0 9.0 0.00 0.00 0.00 36 1013.3
20260503231818 56 46 4.0 9.0 0.00 0.00 0.00 36 1013.3
20260503231313 56 57 3.0 9.0 0.00 0.00 0.00 37 1013.2
20260503230825 56 126 1.0 7.0 0.00 0.00 0.00 37 1013.2
20260503230317 56 291 3.0 9.0 0.00 0.00 0.00 36 1013.2
20260503225827 56 62 2.0 11.0 0.00 0.00 0.00 38 1013.3
20260503225319 57 185 6.0 11.0 0.00 0.00 0.00 36 1013.2
20260503224831 57 119 2.0 9.0 0.00 0.00 0.00 37 1013.3
20260503224322 57 299 3.0 8.0 0.00 0.00 0.00 36 1013.2
20260503223814 57 158 2.0 7.0 0.00 0.00 0.00 37 1013.2
20260503223331 57 178 3.0 9.0 0.00 0.00 0.00 37 1013.1
20260503222822 57 191 3.0 10.0 0.00 0.00 0.00 36 1013.2
20260503222334 57 49 2.0 9.0 0.00 0.00 0.00 37 1013.1
20260503221825 57 267 3.0 8.0 0.00 0.00 0.00 37 1013.1
20260503221317 57 275 3.0 8.0 0.00 0.00 0.00 37 1013.2
20260503220829 57 53 3.0 9.0 0.00 0.00 0.00 37 1013.3
20260503220320 57 170 4.0 9.0 0.00 0.00 0.00 35 1013.3
20260503215831 57 9 1.0 10.0 0.00 0.00 0.00 35 1013.3
20260503215322 57 78 3.0 14.0 0.00 0.00 0.00 36 1013.4
20260503214818 57 282 6.0 13.0 0.00 0.00 0.00 35 1013.3
20260503214331 58 294 6.0 14.0 0.00 0.00 0.00 34 1013.4
20260503213823 58 314 5.0 14.0 0.00 0.00 0.00 35 1013.3
20260503213315 58 279 3.0 10.0 0.00 0.00 0.00 37 1013.3
20260503212827 58 84 5.0 11.0 0.00 0.00 0.00 35 1013.3
20260503212319 58 20 4.0 12.0 0.00 0.00 0.00 36 1013.3
20260503211832 58 158 4.0 14.0 0.00 0.00 0.00 35 1013.2
20260503211324 58 71 5.0 11.0 0.00 0.00 0.00 36 1013.2
20260503210841 58 97 3.0 15.0 0.00 0.00 0.00 37 1013.4
20260503210352 58 263 3.0 15.0 0.00 0.00 0.00 36 1013.4
20260503205842 58 294 4.0 12.0 0.00 0.00 0.00 37 1013.4
20260503205313 58 200 5.0 11.0 0.00 0.00 0.00 35 1013.5
20260503204825 58 140 6.0 11.0 0.00 0.00 0.00 35 1013.4
20260503204317 58 63 4.0 8.0 0.00 0.00 0.00 36 1013.4
20260503203829 58 165 1.0 10.0 0.00 0.00 0.00 38 1013.4
20260503203341 58 17 3.0 10.0 0.00 0.00 0.00 38 1013.5
20260503202832 58 127 3.0 16.0 0.00 0.00 0.00 38 1013.6
20260503202323 58 281 9.0 16.0 0.00 0.00 0.00 35 1013.5
20260503201819 58 281 4.0 14.0 0.00 0.00 0.00 40 1013.6
20260503201332 58 257 8.0 14.0 0.00 0.00 0.00 34 1013.6
20260503200823 58 247 7.0 12.0 0.00 0.00 0.00 32 1013.7
20260503200336 58 9 3.0 15.0 0.00 0.00 0.00 35 1013.7
20260503195825 58 61 5.0 14.0 0.00 0.00 0.00 35 1013.8
20260503195317 58 113 5.0 15.0 0.00 0.00 0.00 35 1013.7
20260503194828 58 293 10.0 15.0 0.00 0.00 0.00 34 1013.8
20260503194320 58 304 9.0 13.0 0.00 0.00 0.00 35 1013.8
20260503193832 58 296 5.0 11.0 0.00 0.00 0.00 39 1014.0
20260503193328 57 112 3.0 16.0 0.00 0.00 0.00 36 1014.0
20260503192840 58 71 9.0 16.0 0.00 0.00 0.00 35 1013.9
20260503192331 58 95 4.0 14.0 0.00 0.00 0.00 37 1014.2
20260503191822 58 159 4.0 14.0 0.00 0.00 0.00 41 1014.3
20260503191314 57 148 5.0 14.0 0.00 0.00 0.00 39 1014.2
20260503190826 56 151 3.0 13.0 0.00 0.00 0.00 40 1014.4
20260503190338 57 298 5.0 13.0 0.00 0.00 0.00 37 1014.4
20260503185827 57 119 5.0 10.0 0.00 0.00 0.00 38 1014.4
20260503185339 56 9 6.0 12.0 0.00 0.00 0.00 37 1014.4
20260503184830 56 280 8.0 14.0 0.00 0.00 0.00 34 1014.5
20260503184343 56 360 4.0 15.0 0.00 0.00 0.00 36 1014.6
20260503183819 57 279 6.0 14.0 0.00 0.00 0.00 39 1014.5
20260503183351 57 360 5.0 15.0 0.00 0.00 0.00 41 1014.6
20260503182823 57 271 6.0 15.0 0.00 0.00 0.00 38 1014.7
20260503182315 57 251 4.0 9.0 0.00 0.00 0.00 39 1014.7
20260503181827 56 50 4.0 9.0 0.00 0.00 0.00 38 1014.7
20260503181318 55 121 4.0 21.0 0.00 0.00 0.00 40 1014.7
20260503180830 55 11 9.0 21.0 0.00 0.00 0.00 35 1014.8
20260503180322 55 294 8.0 13.0 0.00 0.00 0.00 39 1014.7
20260503175817 55 268 6.0 12.0 0.00 0.00 0.00 38 1014.9
20260503175349 56 146 5.0 9.0 0.00 0.00 0.00 40 1014.8
20260503174820 55 289 4.0 13.0 0.00 0.00 0.00 41 1014.9
20260503174351 55 125 4.0 13.0 0.00 0.00 0.00 38 1014.8
20260503173821 54 288 3.0 14.0 0.00 0.00 0.00 44 1015.0
20260503173314 55 294 8.0 14.0 0.00 0.00 0.00 40 1015.0
20260503172826 55 153 7.0 13.0 0.00 0.00 0.00 40 1015.1
20260503172318 54 176 3.0 17.0 0.00 0.00 0.00 44 1015.2
20260503171829 54 164 8.0 17.0 0.00 0.00 0.00 40 1015.2
20260503171321 54 309 4.0 11.0 0.00 0.00 0.00 41 1015.2
20260503170815 54 111 5.0 11.0 0.00 0.00 0.00 45 1015.4
20260503170328 53 52 2.0 14.0 0.00 0.00 0.00 42 1015.4
20260503150825 48 314 6.0 16.0 0.00 0.00 0.00 53 1016.2
20260503150316 47 28 7.0 15.0 0.00 0.00 0.00 48 1016.1
20260503131328 44 278 5.0 13.0 0.00 0.00 0.00 63 1016.2
20260503130819 43 277 7.0 14.0 0.00 0.00 0.00 62 1016.2
20260503130331 44 268 7.0 14.0 0.00 0.00 0.00 63 1016.2
20260503110342 38 292 5.0 12.0 0.00 0.00 0.00 74 1015.2
20260503090330 37 260 2.0 7.0 0.00 0.00 0.00 77 1014.1
20260503081328 39 274 3.0 7.0 0.00 0.00 0.00 74 1014.0
20260503080820 39 281 4.0 7.0 0.00 0.00 0.00 74 1014.0
20260503080315 39 270 2.0 9.0 0.00 0.00 0.00 74 1014.0
20260503072813 39 310 3.0 9.0 0.00 0.00 0.00 74 1013.7
20260503072325 39 279 4.0 8.0 0.00 0.00 0.00 74 1013.7
20260503071817 39 360 3.0 8.0 0.00 0.00 0.00 74 1013.7
20260503071313 39 296 3.0 9.0 0.00 0.00 0.00 74 1013.6
20260503070826 39 310 3.0 8.0 0.00 0.00 0.00 74 1013.6
20260503070317 39 279 2.0 9.0 0.00 0.00 0.00 74 1013.6